Estación municipal de Les Masies de Roda (Osona, Ter)

Consulta los datos en tiempo real de la estación municipal de Les Masies de Roda





Hora UTC 13:40
Temperatura 15.0 ºC
Suelo 15 cm 14.3 ºC
Humedad 77.0 %
Presión 1009.9 hPa
Pluja 1.2 mm
Velocidad viento 9.7 km/h
Dirección viento SE
Radiación solar 482.8 W/m²

Datos diarios 2026-05-05



Hora UTC (invierno +1h; verano +2h)
Temperatura (ºC) Humedad (%) Presión (hPa) Velocidad viento (km/h) Precipitación (mm) Radiación solar (W/m²)
Hora UTC Aire Suelo 15 cm Humedad Presión Vel. Dir. Vel. Max Dir. Intent. máx 5 min. Rad. Sol.
00:05 8.7 7.1 98.6 1011.6 0.6 NNE 0.6 NNE 0.0 0.1
00:10 8.6 7.4 98.6 1011.7 0.3 N 2.5 N 0.0 0.1
00:15 8.8 7.7 98.8 1011.7 1.8 NNE 3.2 NE 0.0 0.1
00:20 9.1 8.0 98.9 1011.6 1.4 ENE 3.9 E 0.0 0.1
00:25 9.0 8.1 98.8 1011.7 0.0 NNE 0.0 ENE 0.0 0.1
00:30 9.0 8.4 98.8 1011.5 2.6 ENE 4.2 ENE 0.0 0.1
00:35 9.3 8.8 99.0 1011.6 1.3 ENE 4.2 ENE 0.0 0.1
00:40 9.4 9.0 98.9 1011.5 1.4 NE 3.2 ENE 0.0 0.1
00:45 9.4 9.1 98.9 1011.6 2.0 N 3.5 NNW 0.0 0.1
00:50 9.3 9.0 98.9 1011.4 2.5 NNE 4.2 NNW 0.0 0.1
00:55 9.3 9.0 98.9 1011.5 0.5 N 2.5 NNE 0.0 0.1
01:00 9.4 9.1 99.0 1011.4 0.0 WSW 1.8 WSW 0.0 0.1
01:05 9.4 9.1 99.0 1011.5 2.8 WSW 5.3 SW 0.0 0.1
01:10 9.4 9.2 99.0 1011.3 0.5 WNW 3.5 WNW 0.0 0.1
01:15 9.3 9.1 98.9 1011.5 4.1 WNW 5.3 WNW 0.0 0.1
01:20 9.2 9.1 98.9 1011.4 3.7 WNW 5.7 WNW 0.0 0.1
01:25 9.0 8.9 98.9 1011.5 3.4 NW 5.0 NNW 0.0 0.1
01:30 8.9 8.8 98.9 1011.4 3.2 NNW 4.6 NNW 0.0 0.1
01:35 9.0 8.7 99.0 1011.5 1.7 NNE 3.9 NNE 0.0 0.1
01:40 9.0 8.7 99.1 1011.5 1.3 NE 3.5 ENE 0.0 0.1
01:45 9.0 8.8 99.1 1011.6 0.3 ENE 2.1 ENE 0.0 0.1
01:50 9.1 8.9 99.1 1011.5 1.9 ENE 4.2 ENE 0.0 0.1
01:55 9.2 9.1 99.1 1011.4 1.6 E 3.5 ENE 0.0 0.1
02:00 9.2 9.2 99.1 1011.5 2.9 ENE 4.2 ENE 0.0 0.1
02:05 9.2 9.2 99.1 1011.5 2.5 NE 4.2 NE 0.0 0.1
02:10 9.1 9.1 99.1 1011.6 1.0 NE 3.5 NE 0.0 0.1
02:15 9.1 9.1 99.1 1011.5 2.0 ENE 5.0 E 0.0 0.1
02:20 9.2 9.2 99.2 1011.7 0.6 NE 2.8 NE 0.0 0.1
02:25 9.3 9.2 99.2 1011.5 1.9 NE 4.2 NE 0.0 0.1
02:30 9.4 9.3 99.2 1011.6 3.1 NE 6.4 NNE 0.0 0.1
02:35 9.4 9.3 99.2 1011.4 2.7 NE 6.0 NE 0.0 0.1
02:40 9.4 9.3 99.2 1011.6 0.1 NE 1.8 NE 0.0 0.1
02:45 9.4 9.4 99.2 1011.5 1.0 NNE 3.2 N 0.0 0.1
02:50 9.4 9.4 99.2 1011.6 0.0 NNE 0.0 N 0.0 0.1
02:55 9.4 9.2 99.2 1011.5 0.0 NNE 0.0 NE 0.0 0.1
03:00 9.4 9.1 99.2 1011.5 0.9 NE 2.8 N 0.0 0.1
03:05 9.4 8.8 99.2 1011.4 0.3 N 2.5 N 0.0 0.1
03:10 9.3 8.5 99.2 1011.4 0.0 NNE 0.0 NNE 0.0 0.1
03:15 9.3 8.5 99.2 1011.5 3.8 SSE 5.7 SSE 0.0 0.1
03:20 9.5 8.8 99.3 1011.4 1.9 SSE 4.6 S 0.0 0.1
03:25 9.5 8.9 99.3 1011.4 0.0 NNE 0.0 ESE 0.0 0.1
03:30 9.5 9.0 99.2 1011.2 0.1 NE 1.8 NE 0.0 0.1
03:35 9.5 9.1 99.3 1011.4 1.4 ESE 3.2 SE 0.0 0.1
03:40 9.5 9.0 99.2 1011.2 1.7 W 4.2 W 0.0 0.1
03:45 9.4 8.9 99.2 1011.4 3.2 WSW 4.2 WSW 0.0 0.1
03:50 9.4 9.0 99.2 1011.2 3.4 SSW 5.3 S 0.0 0.1
03:55 9.4 9.0 99.3 1011.3 3.0 W 5.0 W 0.0 0.1
04:00 9.2 9.0 99.2 1011.1 1.8 NNW 2.5 WNW 0.0 0.1
04:05 9.1 9.0 99.2 1011.2 0.5 NW 2.5 NW 0.0 0.1
04:10 9.2 9.1 99.3 1011.2 2.5 W 3.5 W 0.0 0.1
04:15 9.3 9.1 99.3 1011.2 1.5 WNW 3.2 WNW 0.0 0.1
04:20 9.2 9.1 99.3 1011.2 2.4 NE 3.9 NNE 0.0 0.1
04:25 9.1 9.1 99.2 1011.2 2.8 N 4.2 N 0.0 0.1
04:30 9.0 9.0 99.2 1011.2 0.3 NNW 2.1 NNW 0.0 0.3
04:35 9.1 9.1 99.3 1011.2 1.6 SSW 5.0 SSW 0.0 0.6
04:40 9.1 9.1 99.3 1011.3 3.9 S 6.4 SSW 0.1 1.3
04:45 9.0 9.1 99.3 1011.3 5.2 SSW 7.8 SSW 0.0 2.1
04:50 8.9 9.0 99.3 1011.4 4.5 S 7.4 S 0.0 3.2
04:55 8.7 8.9 99.2 1011.2 4.6 S 7.1 S 0.0 4.5
05:00 8.7 8.8 99.3 1011.4 4.0 S 6.7 S 0.0 5.8
05:05 8.7 8.8 99.3 1011.3 4.8 S 6.4 S 0.0 7.7
05:10 8.6 8.8 99.3 1011.5 5.1 S 7.1 SSW 0.0 10.1
05:15 8.5 8.8 99.3 1011.4 4.2 SSW 6.4 SSW 0.0 14.5
05:20 8.5 8.7 99.3 1011.6 4.6 SSW 6.0 SSW 0.0 17.5
05:25 8.5 8.7 99.3 1011.5 3.0 SSW 5.3 SSW 0.0 18.1
05:30 8.6 8.8 99.4 1011.7 3.4 SSW 5.7 SSW 0.0 19.3
05:35 8.5 8.8 99.3 1011.6 3.4 SSW 5.7 SSE 0.0 21.0
05:40 8.5 8.8 99.3 1011.8 3.9 SSW 6.4 S 0.0 26.5
05:45 8.5 8.9 99.4 1011.7 3.8 SW 6.0 SW 0.0 35.5
05:50 8.5 9.0 99.3 1011.8 4.4 WSW 6.4 WSW 0.0 45.5
05:55 8.5 9.1 99.3 1011.8 4.0 WSW 5.3 WSW 0.0 49.9
06:00 8.6 9.2 99.4 1011.8 3.3 SW 6.0 SW 0.0 51.7
06:05 8.6 9.3 99.3 1011.9 4.4 S 7.1 SE 0.0 54.3
06:10 8.4 9.2 99.3 1011.7 3.0 SSE 5.3 SSE 0.0 63.0
06:15 8.4 9.3 99.3 1011.8 3.6 SSE 6.4 SSE 0.0 75.3
06:20 8.6 9.6 99.4 1011.7 3.6 SSW 5.7 SW 0.0 100.1
06:25 8.9 9.9 99.4 1011.9 3.2 SSW 5.0 SSW 0.0 95.2
06:30 9.0 10.1 99.4 1011.8 4.3 SW 6.7 SSW 0.0 87.5
06:35 8.9 10.2 99.3 1012.0 3.8 SSW 5.7 SSW 0.0 110.6
06:40 9.0 10.4 99.4 1011.8 4.3 SSW 7.1 S 0.0 120.5
06:45 9.2 10.5 99.4 1012.0 4.7 SW 6.4 SW 0.0 128.0
06:50 9.2 10.7 99.3 1011.9 4.1 WSW 6.4 WSW 0.0 150.9
06:55 9.4 10.9 99.3 1012.1 4.0 W 6.0 W 0.0 169.7
07:00 9.4 11.1 99.3 1011.9 3.0 WSW 5.0 W 0.0 182.6
07:05 9.5 11.4 99.3 1012.0 1.8 WSW 3.5 WNW 0.0 199.4
07:10 9.8 11.8 99.3 1011.9 1.3 WSW 3.5 W 0.0 322.0
07:15 10.3 12.5 99.3 1012.0 0.9 W 2.5 WNW 0.0 318.4
07:20 10.3 12.8 99.2 1011.9 1.7 SSW 5.0 W 0.0 269.0
07:25 10.2 13.1 99.1 1012.0 1.8 WSW 5.3 W 0.0 250.8
07:30 10.2 13.2 99.1 1011.8 1.1 WNW 3.9 WNW 0.0 288.1
07:35 10.3 13.4 99.1 1011.9 1.6 NE 3.5 N 0.0 384.8
07:40 10.5 13.7 99.0 1011.7 2.5 N 6.0 NNE 0.0 356.3
07:45 10.6 13.9 98.9 1011.6 3.0 N 6.7 NNW 0.0 441.6
07:50 10.7 14.3 98.7 1011.5 3.3 NNE 6.4 NNE 0.0 387.8
07:55 10.8 14.4 98.6 1011.5 2.4 NW 5.7 NNW 0.0 396.5
08:00 10.8 14.5 98.6 1011.6 1.4 NW 3.2 W 0.0 212.3
08:05 10.5 14.5 98.1 1011.6 0.9 E 3.2 NE 0.0 212.2
08:10 10.4 14.4 97.3 1011.6 0.6 SE 2.8 SSE 0.0 206.7
08:15 10.7 14.5 96.4 1011.5 2.5 E 5.7 SSE 0.0 216.3
08:20 11.2 14.5 93.3 1011.6 3.4 SE 5.7 SE 0.0 246.0
08:25 11.5 14.6 90.9 1011.5 3.2 S 6.4 S 0.0 247.1
08:30 11.9 14.8 87.8 1011.6 2.0 SSE 6.0 SE 0.0 349.8
08:35 12.3 15.1 84.2 1011.4 2.3 ESE 4.6 ESE 0.0 321.3
08:40 12.7 15.4 83.9 1011.5 5.9 S 11.3 SSW 0.0 350.4
08:45 12.7 15.7 85.5 1011.5 7.0 SW 9.5 W 0.0 511.7
08:50 13.0 17.1 85.6 1011.6 4.0 WSW 7.1 SSW 0.0 757.9
08:55 13.7 18.4 78.5 1011.5 2.3 S 6.0 S 0.0 723.2
09:00 14.0 18.5 76.9 1011.6 3.2 SSE 8.1 SSE 0.0 444.3
09:05 13.7 18.4 73.9 1011.3 4.9 E 7.8 ENE 0.0 712.8
09:10 13.6 19.0 73.5 1011.4 3.7 NE 6.7 ENE 0.0 739.7
09:15 13.6 19.2 78.7 1011.3 3.5 NW 6.0 NW 0.0 761.6
09:20 14.1 19.7 77.0 1011.5 2.3 WNW 7.8 NNE 0.0 535.5
09:25 13.9 18.7 77.9 1011.4 3.7 NW 6.7 ENE 0.0 288.1
09:30 13.6 17.7 81.2 1011.5 5.8 W 8.5 W 0.0 255.1
09:35 13.5 17.6 81.3 1011.4 3.8 W 6.4 W 0.0 294.6
09:40 13.6 17.8 79.8 1011.5 3.2 SW 6.0 SW 0.0 343.2
09:45 13.9 18.5 77.4 1011.4 4.5 SW 6.7 WSW 0.0 465.7
09:50 14.7 20.1 77.1 1011.4 3.2 WNW 6.4 WNW 0.0 674.0
09:55 14.6 20.3 72.1 1011.2 2.6 NNE 6.4 NNW 0.0 436.3
10:00 14.3 19.8 75.4 1011.1 1.9 NW 5.0 NW 0.0 364.2
10:05 14.4 19.2 78.4 1011.0 3.7 NW 6.0 NW 0.0 281.4
10:10 14.3 18.4 78.8 1011.0 3.1 NW 6.4 WNW 0.0 301.0
10:15 14.7 18.8 82.5 1011.1 4.5 W 8.1 WNW 0.0 606.3
10:20 15.3 20.8 74.9 1011.0 3.8 NW 7.8 NW 0.0 928.0
10:25 16.0 22.4 78.1 1011.1 6.5 WSW 8.1 WSW 0.0 789.8
10:30 16.1 22.5 74.8 1010.9 4.5 W 7.1 SW 0.0 552.8
10:35 15.9 22.5 71.3 1011.0 4.2 NNE 6.7 N 0.0 875.0
10:40 16.0 23.0 70.7 1010.8 3.0 ENE 7.1 NNE 0.0 871.0
10:45 16.2 23.2 71.5 1010.9 5.5 NE 9.2 NNE 0.0 880.0
10:50 16.6 23.7 71.4 1010.7 4.1 NE 6.7 ENE 0.0 906.0
10:55 16.8 24.6 68.2 1010.8 4.4 NE 8.5 NNE 0.0 900.0
11:00 16.6 24.3 69.4 1010.6 4.6 NNE 8.8 NNE 0.0 689.4
11:05 16.6 23.7 68.2 1010.6 1.6 NE 4.2 NE 0.0 474.3
11:10 17.1 23.5 71.0 1010.5 1.1 NNW 4.2 WSW 0.0 423.0
11:15 17.4 23.0 72.2 1010.6 4.8 W 7.8 W 0.0 313.3
11:20 17.1 22.7 70.6 1010.6 1.9 WNW 3.9 W 0.0 438.7
11:25 17.7 23.3 71.3 1010.5 3.3 SSW 7.4 S 0.0 517.3
11:30 17.9 23.3 67.5 1010.5 3.4 SSW 6.4 SSW 0.0 462.1
11:35 18.0 23.3 65.6 1010.4 6.0 S 13.1 SSE 0.0 381.0
11:40 17.7 22.5 62.0 1010.5 5.8 SE 9.5 SSE 0.0 350.6
11:45 17.9 22.6 67.2 1010.2 5.6 SSW 10.3 ESE 0.0 653.4
11:50 18.8 24.6 66.8 1010.3 2.9 SW 7.8 SW 0.0 936.0
11:55 19.3 27.2 60.5 1010.0 2.1 W 7.4 WSW 0.0 989.0
12:00 19.4 28.4 61.8 1010.1 3.3 WSW 7.1 WSW 0.0 786.3
12:05 19.2 27.3 62.6 1009.9 5.3 WNW 11.3 W 0.0 489.3
12:10 18.9 25.7 64.8 1009.9 7.7 WNW 14.5 NW 0.0 245.5
12:15 18.1 23.4 65.6 1009.9 7.8 WSW 11.0 WSW 0.0 130.9
12:20 17.6 21.7 68.2 1009.9 6.3 WSW 9.5 WSW 0.1 90.1
12:25 17.2 18.4 74.2 1009.9 6.1 WNW 8.8 W 0.8 106.7
12:30 16.7 15.8 75.5 1009.9 5.0 W 7.1 WSW 0.1 126.6
12:35 16.5 15.7 81.5 1010.0 5.0 SSW 8.8 SSW 0.0 129.1
12:40 16.3 15.6 78.4 1009.8 5.4 SSE 9.5 S 0.0 143.8
12:45 16.5 15.5 75.8 1009.9 8.0 S 13.8 SSE 0.0 145.7
12:50 16.3 15.3 76.1 1009.8 8.1 SSW 13.8 SSE 0.0 189.6
12:55 16.2 16.1 77.9 1009.9 5.1 SW 9.2 S 0.0 508.5
13:00 17.0 18.4 74.4 1009.8 6.9 S 14.1 SSE 0.0 437.4
13:05 16.7 17.7 74.9 1010.0 7.9 SE 17.0 SE 0.0 263.5
13:10 16.3 16.9 77.0 1009.9 8.0 ESE 14.1 SSE 0.0 217.8
13:15 15.8 16.4 78.9 1010.1 6.2 ESE 12.0 E 0.0 149.4
13:20 15.4 15.8 81.1 1010.0 4.3 ESE 10.3 E 0.0 97.7
13:25 15.4 15.4 80.8 1010.2 6.6 SE 12.7 ESE 0.0 69.3
13:30 15.5 14.7 76.7 1010.1 11.6 SSE 20.5 SE 0.0 82.2
13:35 15.2 14.1 77.1 1010.1 11.4 SSE 18.4 S 0.1 157.5
13:40 15.0 14.3 77.0 1009.9 9.7 SE 15.5 S 0.0 482.8
Máxima 19.4 28.4 99.4 1012.1 11.6 SSE 20.5 SE 0.8 989.0
Mínima 8.4 7.1 60.5 1009.8
Total 1.2